Weather Roundup
Issued by NWS Chicago, IL

Home | Current Version | Previous Version | Text Only | Print | Product List | Glossary Off
Versions: 1 2 3 4 5 6 7 8 9 10 11 12 13 14 15 16 17 18 19 20 21 22 23 24 25 26 27 28 29 30 31 32 33 34 35 36 37 38 39 40 41 42 43 44 45 46 47 48 49 50

000
NZUS59 KLOT 280412
HRRLOT

CHICAGO AREA WEATHER ROUNDUP
NATIONAL WEATHER SERVICE CHICAGO/ROMEOVILLE IL
1100 PM CDT MON JUL 27 2015

NOTE: "FAIR" INDICATES FEW OR NO CLOUDS BELOW 12,000 FEET WITH NO
SIGNIFICANT WEATHER AND/OR OBSTRUCTIONS TO VISIBILITY.

* THESE STATIONS ARE NOT UNDER NWS QUALITY CONTROL. THEY ALSO MAY NOT
  REPORT WEATHER SUCH AS PRECIPITATION OR FOG.

ILZ005-006-012>014-019>023-280500-
NORTHEAST ILLINOIS

CITY           SKY/WX    TMP DP  RH WIND       PRES   REMARKS
OHARE          MOCLDY    74  65  73 E6        30.02R
MIDWAY         CLOUDY    78  66  66 E7        30.02R HX  80
AURORA         MOCLDY    72  63  73 E5        30.01S
LANSING*       PTCLDY    73  64  73 CALM      30.02S
JOLIET*        MOCLDY    75  66  74 NE7       30.00F
WAUKEGAN       MOCLDY    70  66  87 NE5       30.02S
DUPAGE AIRPORT MOCLDY    74  63  68 E6        30.01F
WHEELING       MOCLDY    73  66  78 CALM      30.03R
KANKAKEE*      MOCLDY    72  69  88 NE6       30.00F
MORRIS*        MOCLDY    74  65  74 E3        29.99S
LEWIS AIRPORT* MOCLDY    73  63  70 E7        30.01F
NORTHERLY IS     N/A     73  68  84 CALM        N/A
$$

WIZ051-052-058>065-066-070>072-280500-
SOUTHEAST WISCONSIN

CITY           SKY/WX    TMP DP  RH WIND       PRES   REMARKS
MILWAUKEE      MOCLDY    72  66  81 SE3       30.03R
KENOSHA*       MOCLDY    68  65  90 E6        30.03R
RACINE*        PTCLDY    71  66  84 E6        30.04S
BURLINGTON     PTCLDY    64  62  95 CALM      30.03S
WAUKESHA       PTCLDY    66  59  77 CALM      30.04R
WEST BEND      CLEAR     63  61  94 CALM      30.03S
$$

INZ001>003-010>013-019-020-280500-
NORTHWEST INDIANA

CITY           SKY/WX    TMP DP  RH WIND       PRES   REMARKS
GARY*          PTCLDY    75  70  85 NE6       30.02S
MICHIGAN CITY* NOT AVBL
RENSSELAER*    NOT AVBL
VALPARAISO     PTCLDY    68  66  93 CALM      30.03R
$$

LMZ740>746-280500-
SOUTHERN LAKE MICHIGAN

STATION/POSITION TIME  SKY/WX   TEMP WIND        PRES    VSBY
                                AIR  DIR/SP/G
                 (UTC)          (F)  (DEG/KT/KT) (MB)    (MI)
HARRISON CRIB    0300            74   60/ 11/ 13   N/A
BURNHAM HARBOR   0400            73  170/  1/  4   N/A
CALUMET HARBOR   0300            75   70/  4/  5   N/A
BURNS HARBOR     0300            73   80/  9/ 11 1016.9R
MICHIGAN CITY    0300            73   40/ 10/ 11   N/A
$$

ABBREVIATIONS USED IN REMARKS
   TC - TEMPERATURE IN CELSIUS
  WCI - WIND CHILL INDEX
   HX - HEAT INDEX
  VSB - VISIBILITY
$$


USA.gov is the U.S. government's official web portal to all federal, state and local government web resources and services.